• In Austria
  • List of Countries
  • For 7 days
  • Water Temperature
  • Satellite Maps
  • Weather Map
  • News
  • Weather Widgets
  • user-avatar
    Login

    Hourly Weather Kitzbuhel

    Today, 11 December, Monday

    Time Temperature Precipitation Wind Pressure Humidity
    00:00 -2°C° 0 mm 3 mps 660 mmHg 82%
    01:00 -2°C° 0 mm 3 mps 660 mmHg 82%
    02:00 -2°C° 0 mm 3 mps 660 mmHg 83%
    03:00 -1°C° 0 mm 3 mps 659 mmHg 84%
    04:00 -1°C° 0 mm 3 mps 659 mmHg 85%
    05:00 0°C° 0 mm 3 mps 659 mmHg 85%
    06:00 0°C° 0 mm 3 mps 658 mmHg 85%
    07:00 +1°C° 0 mm 3 mps 658 mmHg 86%
    08:00 0°C° 0 mm 4 mps 658 mmHg 86%
    09:00 +1°C° 0 mm 4 mps 657 mmHg 86%
    10:00 +3°C° 0 mm 4 mps 657 mmHg 87%
    11:00 +4°C° 0 mm 4 mps 657 mmHg 87%
    12:00 +5°C° 0 mm 4 mps 657 mmHg 88%
    13:00 +5°C° 0 mm 4 mps 656 mmHg 89%
    14:00 +5°C° 0 mm 4 mps 656 mmHg 89%
    15:00 +5°C° 0 mm 4 mps 656 mmHg 88%
    16:00 +4°C° 0 mm 4 mps 656 mmHg 88%
    17:00 +4°C° 0 mm 4 mps 657 mmHg 89%
    18:00 +3°C° 0 mm 4 mps 657 mmHg 89%
    19:00 +3°C° 0 mm 4 mps 657 mmHg 89%
    20:00 +3°C° 0.1 mm 3 mps 658 mmHg 89%
    21:00 +3°C° 0.1 mm 3 mps 659 mmHg 90%
    22:00 +2°C° 0.1 mm 3 mps 659 mmHg 91%
    23:00 +2°C° 0.8 mm 3 mps 660 mmHg 92%

    Tomorrow, 12 December, Tuesday

    Time Temperature Precipitation Wind Pressure Humidity
    00:00 +2°C° 0.8 mm 3 mps 660 mmHg 93%
    01:00 +2°C° 0.8 mm 3 mps 661 mmHg 94%
    02:00 +2°C° 1.6 mm 3 mps 661 mmHg 94%
    03:00 +1°C° 1.6 mm 3 mps 662 mmHg 94%
    04:00 +1°C° 1.6 mm 3 mps 662 mmHg 94%
    05:00 +1°C° 1.9 mm 3 mps 663 mmHg 95%
    06:00 +1°C° 1.9 mm 3 mps 664 mmHg 95%
    07:00 0°C° 1.9 mm 3 mps 665 mmHg 95%
    08:00 0°C° 1.4 mm 3 mps 666 mmHg 95%
    09:00 -1°C° 1.4 mm 3 mps 667 mmHg 95%
    10:00 -1°C° 1.4 mm 2 mps 668 mmHg 95%
    11:00 -1°C° 1 mm 2 mps 668 mmHg 95%
    12:00 -2°C° 1 mm 2 mps 669 mmHg 94%
    13:00 -2°C° 1 mm 2 mps 669 mmHg 94%
    14:00 -1°C° 0.6 mm 1 mps 670 mmHg 94%
    15:00 -1°C° 0.6 mm 1 mps 670 mmHg 94%
    16:00 -2°C° 0.6 mm 1 mps 671 mmHg 94%
    17:00 -2°C° 0.3 mm 1 mps 671 mmHg 94%
    18:00 -2°C° 0.3 mm 1 mps 672 mmHg 93%
    19:00 -5°C° 0.3 mm 2 mps 673 mmHg 93%
    20:00 -5°C° 0.2 mm 2 mps 673 mmHg 93%
    21:00 -5°C° 0.2 mm 2 mps 674 mmHg 92%
    22:00 -5°C° 0.2 mm 2 mps 674 mmHg 92%
    23:00 -5°C° 0.2 mm 2 mps 675 mmHg 92%

    Day after tomorrow, 13 December, Wednesday

    Time Temperature Precipitation Wind Pressure Humidity
    00:00 -3°C° 0.2 mm 1 mps 675 mmHg 92%
    01:00 -3°C° 0.2 mm 1 mps 675 mmHg 91%
    02:00 -4°C° 0.1 mm 1 mps 675 mmHg 91%
    03:00 -4°C° 0.1 mm 1 mps 675 mmHg 91%
    04:00 -6°C° 0.1 mm 1 mps 675 mmHg 90%
    05:00 -6°C° 0.1 mm 1 mps 675 mmHg 90%
    06:00 -6°C° 0.1 mm 1 mps 676 mmHg 89%
    07:00 -7°C° 0.1 mm 1 mps 676 mmHg 89%
    08:00 -6°C° 0 mm 1 mps 676 mmHg 88%
    09:00 -4°C° 0 mm 1 mps 676 mmHg 87%
    10:00 -3°C° 0 mm 1 mps 676 mmHg 86%
    11:00 -1°C° 0 mm 1 mps 675 mmHg 85%
    12:00 -2°C° 0 mm 2 mps 675 mmHg 83%
    13:00 -1°C° 0 mm 2 mps 674 mmHg 82%
    14:00 -1°C° 0 mm 2 mps 674 mmHg 84%
    15:00 -2°C° 0 mm 2 mps 673 mmHg 86%
    16:00 -3°C° 0 mm 2 mps 672 mmHg 87%
    17:00 -3°C° 0 mm 2 mps 672 mmHg 87%
    18:00 -3°C° 0 mm 2 mps 672 mmHg 86%
    19:00 -4°C° 0 mm 2 mps 672 mmHg 86%
    20:00 -4°C° 0 mm 2 mps 672 mmHg 85%
    21:00 -4°C° 0 mm 2 mps 672 mmHg 85%
    22:00 -4°C° 0 mm 2 mps 672 mmHg 85%
    23:00 -4°C° 0.1 mm 2 mps 671 mmHg 83%

    14 December, Thursday

    Time Temperature Precipitation Wind Pressure Humidity
    00:00 -4°C° 0.1 mm 2 mps 671 mmHg 81%
    01:00 -3°C° 0.1 mm 2 mps 671 mmHg 79%
    02:00 -4°C° 0 mm 2 mps 671 mmHg 78%
    03:00 -4°C° 0 mm 2 mps 670 mmHg 76%
    04:00 -4°C° 0 mm 2 mps 670 mmHg 75%
    05:00 -3°C° 0.2 mm 2 mps 670 mmHg 77%
    06:00 -3°C° 0.2 mm 2 mps 670 mmHg 79%
    07:00 -2°C° 0.2 mm 2 mps 670 mmHg 81%
    08:00 -2°C° 0.6 mm 2 mps 670 mmHg 83%
    09:00 -1°C° 0.6 mm 2 mps 669 mmHg 85%
    10:00 -1°C° 0.6 mm 2 mps 669 mmHg 86%
    11:00 +1°C° 0.6 mm 2 mps 669 mmHg 88%
    12:00 +1°C° 0.6 mm 2 mps 668 mmHg 89%
    13:00 +1°C° 0.6 mm 2 mps 668 mmHg 90%
    14:00 +1°C° 0.1 mm 2 mps 667 mmHg 90%
    15:00 +1°C° 0.1 mm 2 mps 667 mmHg 89%
    16:00 -1°C° 0.1 mm 2 mps 666 mmHg 89%
    17:00 -1°C° 0 mm 2 mps 665 mmHg 88%
    18:00 -2°C° 0 mm 3 mps 665 mmHg 87%
    19:00 -2°C° 0 mm 3 mps 664 mmHg 86%
    20:00 -2°C° 0 mm 3 mps 664 mmHg 85%
    21:00 -2°C° 0 mm 4 mps 664 mmHg 84%
    22:00 -2°C° 0 mm 4 mps 663 mmHg 83%
    23:00 -1°C° 0.2 mm 3 mps 663 mmHg 85%

    15 December, Friday

    Time Temperature Precipitation Wind Pressure Humidity
    00:00 -1°C° 0.2 mm 3 mps 663 mmHg 87%
    01:00 -1°C° 0.2 mm 3 mps 663 mmHg 89%
    02:00 -1°C° 0.9 mm 2 mps 664 mmHg 92%
    03:00 -1°C° 0.9 mm 2 mps 664 mmHg 94%
    04:00 -1°C° 0.9 mm 2 mps 665 mmHg 96%
    05:00 -1°C° 0.7 mm 2 mps 665 mmHg 96%
    06:00 -2°C° 0.7 mm 2 mps 665 mmHg 96%
    07:00 0°C° 0.7 mm 1 mps 666 mmHg 96%
    08:00 0°C° 0.5 mm 1 mps 666 mmHg 95%
    09:00 0°C° 0.5 mm 1 mps 666 mmHg 95%
    10:00 0°C° 0.5 mm 1 mps 666 mmHg 94%
    11:00 0°C° 0.5 mm 1 mps 666 mmHg 94%
    12:00 0°C° 0.5 mm 1 mps 666 mmHg 94%
    13:00 0°C° 0.5 mm 1 mps 665 mmHg 93%
    14:00 0°C° 0.7 mm 1 mps 665 mmHg 94%
    15:00 -1°C° 0.7 mm 1 mps 665 mmHg 94%
    16:00 -1°C° 0.7 mm 1 mps 665 mmHg 95%
    17:00 -1°C° 0.5 mm 1 mps 665 mmHg 94%
    18:00 -2°C° 0.5 mm 1 mps 665 mmHg 94%
    19:00 -2°C° 0.5 mm 1 mps 665 mmHg 94%
    20:00 -2°C° 0.5 mm 1 mps 665 mmHg 94%
    21:00 -2°C° 0.5 mm 1 mps 665 mmHg 94%
    22:00 -4°C° 0.5 mm 2 mps 666 mmHg 94%
    23:00 -5°C° 0.3 mm 2 mps 666 mmHg 93%

    16 December, Saturday

    Time Temperature Precipitation Wind Pressure Humidity
    00:00 -5°C° 0.3 mm 2 mps 666 mmHg 92%
    01:00 -5°C° 0.3 mm 2 mps 666 mmHg 92%
    02:00 -5°C° 0.2 mm 2 mps 666 mmHg 91%
    03:00 -6°C° 0.2 mm 2 mps 666 mmHg 91%
    04:00 -6°C° 0.2 mm 2 mps 666 mmHg 91%
    05:00 -6°C° 0.1 mm 2 mps 666 mmHg 90%
    06:00 -6°C° 0.1 mm 2 mps 666 mmHg 90%
    07:00 -6°C° 0.1 mm 2 mps 666 mmHg 90%
    08:00 -6°C° 0.1 mm 2 mps 667 mmHg 89%
    09:00 -5°C° 0.1 mm 2 mps 667 mmHg 89%
    10:00 -5°C° 0.1 mm 2 mps 668 mmHg 89%
    11:00 -5°C° 0.2 mm 2 mps 668 mmHg 89%
    12:00 -4°C° 0.2 mm 2 mps 668 mmHg 90%
    13:00 -4°C° 0.2 mm 2 mps 669 mmHg 90%
    14:00 -4°C° 0.3 mm 2 mps 669 mmHg 92%
    15:00 -4°C° 0.3 mm 2 mps 669 mmHg 93%
    16:00 -5°C° 0.3 mm 2 mps 670 mmHg 95%
    17:00 -5°C° 0.4 mm 2 mps 670 mmHg 95%
    18:00 -5°C° 0.4 mm 2 mps 671 mmHg 95%
    19:00 -6°C° 0.4 mm 2 mps 672 mmHg 95%
    20:00 -6°C° 0.3 mm 2 mps 672 mmHg 95%
    21:00 -6°C° 0.3 mm 2 mps 672 mmHg 95%
    22:00 -6°C° 0.3 mm 2 mps 673 mmHg 95%
    23:00 -7°C° 0.1 mm 2 mps 673 mmHg 94%
    Show more